Погода в Плотаве

Россия / Курская область     51°32′07″N   35°54′44″E
темп.,
°C
ветер,
м/с
пор.,
м/с
влажн.,
%
обл.,
%
осадки,
мм/ч
давл.,
гПа
погр.,
м
19 сентября, вс
вс1900:00+9вюв91782100 0.1 1012522
03:00+9вюв71482100 1.9 1012435
06:00+8вюв81692100 1.7 1010438
09:00+9вюв81691100 6.3 1009437
12:00+11вюв81587100 1.3 1009601
15:00+11вюв61394100 2.3 1008577
18:00+13юв51095100 0.8 1007548
21:00+12вюв3699100 1.2 1007245
20 сентября, пн
пн2000:00+11вюв1199100 0.1 100632
03:00+10вюв2298100 0.1 100613
06:00+11ююв2397100 0.7 100582
09:00+12ююв3797100 1.6 1005275
12:00+10юз5789100 0.4 1006630
15:00+9юз6886100 0.6 1008629
18:00+8ююз5988100 0.2 1008622
21:00+8ююз5886100 0.3 1009546
21 сентября, вт
вт2100:00+8ю5990100 0.1 1009597
03:00+8ю61195100 1.0 1009604
06:00+9юз6992100 0.6 1009877
09:00+8зюз61091100 0.9 1010710
12:00+9зюз6978100 0.1 10121028
15:00+9зюз5877100 0.1 10121091
18:00+7зюз4885100 0.1 1013672
21:00+6зюз4787100 0.1 1014867
22 сентября, ср
ср2200:00+4зюз4695100 0.2 1014701
03:00+5зюз3591100 0.3 1014786
06:00+5юз3590100 0.1 1014783
09:00+5зюз3588100 0.1 1015658
12:00+6зюз3487100 0.1 1016778
15:00+6зюз3484100 0.1 1016783
18:00+6з1284100 0.0 1016350
21:00+6св0088100 0.1 101735
23 сентября, чт
чт2300:00+6вюв1288100 0.1 101666
03:00+6вюв2387100 0.1 101695
06:00+6юв2387100 0.0 1015107
09:00+7юв3578100 0.0 1015803
12:00+7ююв3578100 0.1 1015820
15:00+10ю3459100 0.3 10131092
18:00+9ю2266100 0.1 101423
21:00+8юз126872 0.1 101318